Presure
372 418 443 365 313 230 240 249 274 282 246 228 221 200 184 175 174 172 162 143 158 100 89 79 85 91 87 89 112 134 116 97 142 107 106 104 88 125 118 134 146 140 113 100 85
385 395 388 342 301 186 231 243 260 276 274 233 226 199 196 188 180 176 168 165 136 158 156 95 89 75 93 82 90 92 160 131 102 120 118 132 124 77 89 151 143 139 145 69 72
377 388 330 359 303 246 171 136 255 268 278 238 220 217 201 197 190 182 175 171 163 173 127 143 134 156 91 164 112 94 85 95 104 102 126 120 126 152 90 89 91 132 89 119 138
321 302 312 307 286 250 173 226 244 267 274 253 227 214 191 192 192 188 180 178 174 170 171 148 122 156 97 127 95 95 87 95 95 133 132 103 127 136 133 123 121 73 87 88 87
302 306 296 332 280 244 245 236 242 272 239 267 244 221 212 203 199 190 183 181 179 177 173 173 166 131 98 98 96 95 95 133 100 98 106 143 133 104 125 124 130 124 99 101 71
286 306 308 282 311 251 184 217 239 267 208 270 255 238 208 219 204 196 186 189 184 183 180 173 166 182 175 102 101 101 100 109 131 144 152 82 115 102 109 110 146 147 169 160 127
292 290 314 176 183 253 249 184 246 259 271 281 260 243 231 207 217 206 201 193 187 187 187 184 183 182 178 173 105 104 102 104 106 104 108 119 125 165 99 110 172 69 182 120 122
285 278 281 307 290 195 173 231 259 245 257 272 265 254 228 208 212 208 215 202 192 192 193 179 178 179 181 180 180 184 181 184 122 137 147 143 142 111 159 107 176 109 105 104 169
293 291 313 299 307 237 249 193 173 233 245 233 258 275 226 231 228 207 207 212 208 202 201 194 190 190 193 187 186 191 194 197 198 198 200 203 208 177 180 140 136 132 225 228 179
283 197 280 294 309 214 157 219 213 239 163 244 196 184 229 255 251 218 201 210 210 221 231 225 199 197 210 166 211 212 189 221 223 218 125 148 219 160 155 128 127 126 201 135 135
302 153 294 324 173 212 213 197 141 176 151 150 237 190 283 287 282 261 236 230 201 201 204 207 194 195 204 203 206 195 202 206 211 215 218 211 211 215 211 133 117 244 126 130 128
275 279 248 119 308 323 305 230 150 189 177 176 187 170 211 173 251 258 279 229 218 229 244 246 240 237 231 218 200 201 208 209 211 214 209 207 206 203 219 228 237 223 206 222 239
285 286 305 271 145 219 307 294 234 208 222 217 196 173 189 181 180 188 177 171 180 182 193 276 271 267 262 248 245 241 240 236 235 235 239 251 241 230 239 247 271 254 241 256 259
250 217 228 293 206 257 194 307 243 195 237 214 209 209 184 182 178 173 174 188 179 208 184 192 187 189 205 265 221 265 221 219 231 223 223 231 272 278 263 250 255 257 250 267 298
292 296 232 221 297 263 252 292 168 249 197 252 150 162 235 230 192 190 199 199 190 191 191 224 220 224 232 235 225 231 230 261 269 263 261 256 252 247 243 240 241 269 297 293 283
251 231 331 270 249 234 298 311 248 300 218 235 258 245 205 210 209 221 215 207 215 221 219 237 227 231 224 226 228 226 227 225 228 232 232 239 249 264 264 304 292 280 286 277 267
222 266 265 234 283 274 261 291 256 240 214 209 205 211 248 227 233 243 240 234 229 213 226 214 223 239 250 252 265 265 258 265 272 265 277 298 312 300 285 280 275 277 266 264 263
133 204 211 284 271 245 225 235 291 279 270 299 307 296 236 228 240 289 252 262 262 256 269 265 267 327 341 343 341 345 336 320 314 303 290 295 282 276 276 273 273 270 271 276 232
184 154 139 199 215 220 249 283 273 255 221 212 213 211 207 209 209 209 208 207 212 216 217 219 223 299 226 225 238 301 300 310 287 286 293 282 274 272 274 223 218 219 212 211 222
192 184 150 155 189 179 157 186 211 222 219 266 276 285 277 274 274 270 273 276 275 274 272 270 231 270 270 230 230 268 203 229 227 209 229 228 236 196 266 192 269 251 257 262 262
146 172 202 172 184 172 187 203 171 174 156 215 135 138 140 174 194 211 169 222 244 252 256 280 291 283 287 279 284 276 219 283 259 282 281 259 270 269 201 283 289 293 268 212 209
120 168 129 139 179 170 177 186 183 174 174 201 184 183 181 206 179 191 200 199 197 204 203 202 202 200 221 213 141 233 164 163 250 287 306 152 155 151 208 212 160 254 213 218 207
174 175 162 135 138 141 135 133 135 135 182 181 180 157 171 191 187 187 209 190 180 196 209 217 185 206 203 206 190 198 216 212 208 212 207 232 200 204 240 232 238 244 242 244 192
154 157 162 188 168 181 162 174 185 129 170 153 148 189 179 180 178 190 191 154 211 175 198 189 188 189 197 191 201 200 200 188 196 200 192 193 193 198 201 218 208 223 220 202 226
168 141 164 176 161 165 165 187 188 169 168 182 165 162 150 178 173 178 157 163 170 179 192 209 165 176 178 217 184 198 203 196 200 175 192 207 212 216 197 135 182 195 203 205 207
170 178 174 177 162 150 195 163 170 150 197 168 170 171 174 134 187 185 126 124 123 186 181 176 160 154 135 136 155 178 186 190 193 195 208 190 208 202 204 203 197 141 182 142 141
167 168 183 183 175 179 168 190 160 171 175 160 157 187 205 178 171 171 170 166 161 160 133 205 203 148 152 178 177 203 193 176 184 135 191 192 180 210 205 169 135 153 192 155 202
Wind_Speed
24 33 54 82 98 84 95 93 85 88 109 104 105 98 93 89 87 84 78 72 72 58 45 28 36 41 34 33 40 51 44 31 45 34 33 24 16 35 32 37 43 42 24 16 7
43 48 62 77 101 65 84 87 84 86 94 106 103 95 95 92 89 86 81 78 71 71 68 37 44 18 44 27 36 34 57 46 36 41 39 45 35 11 20 47 46 43 46 10 11
63 61 68 48 88 90 58 50 84 85 86 103 99 100 96 94 90 86 83 81 77 77 66 65 62 66 44 64 47 37 27 35 38 36 49 46 46 53 26 27 22 43 18 35 43
68 64 53 82 88 92 54 79 79 80 82 98 99 96 86 87 89 87 83 83 81 78 77 69 63 68 53 58 44 41 23 39 38 52 53 38 49 49 47 43 39 18 23 26 27
55 58 65 46 89 79 81 77 73 72 63 84 97 94 93 90 90 84 83 83 82 80 77 77 73 63 56 54 50 47 45 56 47 39 43 58 54 35 43 45 47 43 34 40 13
45 47 53 78 67 80 50 62 62 67 52 78 88 93 85 87 87 85 81 83 81 81 80 76 74 75 74 59 57 55 51 54 59 61 62 18 49 37 42 44 56 56 63 60 49
52 37 31 32 43 73 68 48 59 60 59 63 79 86 86 81 84 85 85 82 79 80 80 79 77 77 76 74 62 61 56 55 55 51 50 56 55 64 41 45 69 3 72 50 52
32 30 36 26 61 36 39 48 56 54 52 59 67 78 79 78 79 79 81 83 78 78 80 76 74 75 76 76 77 78 78 78 62 62 65 65 64 51 65 49 71 48 48 47 68
26 22 28 29 38 56 56 33 25 49 46 49 52 61 65 73 75 72 73 75 78 78 78 78 80 83 84 82 82 84 85 86 85 85 86 86 89 69 72 62 59 58 83 84 71
25 24 18 17 21 44 16 43 44 36 29 42 39 40 46 63 69 70 68 67 65 66 68 71 74 76 80 67 83 82 75 78 76 79 60 66 82 64 66 62 61 59 76 58 57
42 23 42 28 12 31 41 48 33 44 41 35 33 32 35 41 52 63 71 69 56 58 62 66 70 71 72 73 75 76 76 75 74 74 78 78 79 82 80 66 60 75 55 54 55
49 43 34 13 30 24 37 39 9 36 42 40 38 35 29 36 35 40 49 58 48 63 67 72 76 77 77 77 76 76 76 75 74 74 76 78 80 79 80 79 77 76 76 78 81
51 49 46 37 26 22 28 41 42 35 39 38 38 32 28 36 37 38 37 37 39 42 47 50 54 59 63 71 76 77 76 75 75 75 76 77 76 75 75 67 70 73 76 74 72
54 46 46 36 28 34 29 33 44 31 38 35 34 33 37 35 33 32 34 38 39 36 41 39 40 44 45 47 49 53 53 55 59 61 65 72 67 62 59 62 64 64 65 63 34
44 34 40 39 28 31 24 29 24 35 20 36 24 20 24 21 30 32 31 31 37 40 41 35 38 40 42 43 45 47 48 48 48 49 49 49 47 48 52 56 59 52 24 18 18
62 63 19 37 40 37 28 23 23 25 29 21 23 23 19 20 20 19 21 25 26 27 27 33 33 34 39 41 43 46 47 47 47 48 48 48 48 48 46 16 13 18 14 15 19
74 66 60 60 39 39 41 30 26 26 23 26 21 20 12 6 8 19 21 24 25 27 28 31 33 37 39 40 45 44 42 43 42 43 39 22 6 8 10 10 13 13 18 19 19
32 65 64 57 56 53 50 47 27 26 23 16 14 14 6 3 7 19 16 22 26 30 36 36 40 11 3 4 4 3 1 5 4 3 7 3 6 9 9 13 15 16 17 17 13
53 32 28 59 64 64 67 46 44 42 38 35 33 30 26 25 22 19 17 15 15 14 15 15 14 9 11 12 13 7 8 4 3 1 5 3 4 6 9 10 13 16 16 17 19
46 48 31 29 51 45 32 46 56 56 51 39 38 27 25 23 20 19 17 16 17 17 17 18 13 17 16 12 12 17 8 11 11 8 10 10 11 11 14 14 14 15 16 18 19
21 38 45 34 44 37 46 52 35 34 18 47 12 12 12 24 32 38 18 39 48 41 36 35 27 30 26 27 24 23 10 19 15 16 14 12 14 15 12 19 21 22 21 20 18
3 26 10 14 34 30 34 40 38 26 27 46 31 28 25 34 20 26 28 25 23 29 28 26 22 20 32 28 10 39 9 9 37 26 16 17 18 21 15 17 24 22 18 22 14
23 23 28 5 8 11 7 7 7 6 32 31 31 6 18 27 26 27 28 24 12 27 37 40 17 31 28 29 7 16 34 32 27 30 23 42 9 16 36 30 29 34 31 31 19
22 22 22 24 20 21 12 21 19 3 16 9 6 30 19 19 15 24 25 4 28 8 23 22 22 22 24 17 26 26 23 12 24 22 14 14 16 27 24 31 18 29 26 18 31
19 15 22 10 20 19 18 13 23 16 12 13 7 8 9 13 10 11 9 2 6 13 23 29 11 15 18 35 13 24 29 23 24 15 24 30 32 33 23 29 24 26 25 24 22
19 23 20 12 12 19 25 17 11 15 22 14 14 9 7 17 6 10 17 19 18 27 9 8 18 23 20 23 17 20 15 19 20 21 28 18 25 17 21 20 18 34 20 36 36
19 20 27 27 15 21 16 26 17 11 14 17 16 11 32 5 15 13 14 18 20 17 27 33 30 20 21 12 15 24 20 17 15 31 29 17 19 35 25 25 36 29 21 31 30
Wind_Direction
166 172 165 190 184 201 201 203 204 201 209 212 214 217 220 222 225 226 229 228 230 227 227 220 226 239 236 242 237 225 229 256 257 246 251 243 258 249 235 234 252 246 255 267 297
137 136 158 182 184 207 202 201 204 201 203 211 213 216 218 220 224 225 228 230 229 230 233 223 231 225 239 229 239 244 246 248 251 242 254 248 248 225 267 251 247 246 251 235 227
116 117 164 148 181 192 202 205 203 201 201 209 212 215 217 219 221 225 227 230 231 234 225 234 229 239 237 244 236 244 239 253 254 255 233 239 238 247 266 266 250 241 248 247 247
110 144 149 173 180 190 200 201 202 202 202 207 212 214 218 220 221 223 225 230 232 234 236 233 230 237 236 233 243 247 239 251 254 238 238 263 238 241 241 247 246 248 250 249 251
129 139 163 151 184 188 192 197 202 201 204 204 211 214 217 220 222 223 224 229 233 235 237 240 239 238 237 239 242 244 245 236 254 253 262 244 243 267 251 250 250 256 257 262 295
132 133 158 177 184 186 194 197 201 203 203 204 209 214 217 220 222 224 226 227 231 236 238 239 242 247 248 239 241 243 247 249 241 255 252 258 257 261 266 266 262 257 267 265 259
111 114 102 135 165 185 191 196 199 203 204 204 208 213 216 219 222 225 227 229 230 234 238 242 244 246 249 250 243 246 246 249 252 254 257 256 252 256 254 264 263 287 272 263 263
124 152 166 146 185 170 186 189 196 199 202 204 207 212 217 219 222 225 229 229 231 234 238 242 246 248 250 252 254 258 259 260 249 246 249 256 255 260 258 259 269 260 260 260 276
123 136 131 173 179 183 190 182 179 198 203 204 207 210 219 224 227 226 229 232 235 238 241 243 246 249 251 253 256 258 260 263 264 266 268 269 271 266 267 260 259 257 279 279 272
85 89 115 149 164 181 191 185 186 193 202 205 208 211 213 224 226 229 229 232 236 243 247 248 247 250 254 253 258 260 260 266 267 267 252 259 270 260 260 259 261 262 277 265 266
69 67 77 83 38 183 185 189 191 206 189 187 200 202 218 220 224 228 233 238 239 244 248 251 249 251 253 254 257 260 263 264 265 266 268 268 270 273 273 260 261 280 269 270 273
73 69 70 78 87 120 175 189 199 191 210 214 211 221 207 225 215 222 226 236 242 249 252 254 257 259 260 258 257 257 260 262 265 266 266 268 270 275 279 282 280 281 281 282 282
68 69 71 93 138 120 137 174 188 194 190 194 206 226 217 227 234 228 241 249 247 247 248 255 257 259 261 263 265 266 268 270 270 272 274 275 276 279 281 280 284 282 282 287 288
54 73 68 82 126 88 141 148 188 188 197 199 202 207 223 228 234 236 245 243 252 249 257 262 266 269 267 265 268 268 270 270 273 273 274 276 279 283 287 284 284 285 284 289 302
65 71 69 81 97 103 79 142 165 198 170 201 180 177 213 211 226 236 241 246 250 255 259 264 267 269 269 271 272 275 274 280 280 279 279 280 281 279 279 280 282 286 295 303 308
59 60 52 69 66 78 117 131 101 173 166 186 211 213 216 217 223 237 245 249 260 270 267 278 269 272 265 265 263 262 264 267 269 269 270 275 281 283 283 288 281 275 292 293 293
57 60 63 67 76 74 70 90 111 113 135 133 133 127 217 173 243 251 264 271 269 258 260 262 263 270 274 277 279 278 276 276 277 277 278 281 298 268 266 269 275 288 285 294 308
59 55 63 66 69 69 79 82 79 78 83 137 167 191 130 169 277 257 274 282 281 280 282 281 281 266 284 297 281 47 176 248 224 221 252 290 264 265 286 290 293 301 317 323 312
46 60 50 54 64 65 68 75 75 76 85 92 95 97 97 95 94 92 90 79 68 70 70 64 63 102 63 58 44 63 46 7 99 63 44 41 10 341 318 336 329 327 324 314 308
49 47 53 60 55 57 64 65 66 69 73 75 82 85 84 84 85 84 83 78 75 73 72 69 67 65 61 54 47 49 24 35 30 14 11 5 2 330 360 321 347 349 348 351 352
51 42 58 52 53 57 58 64 58 59 81 71 80 85 93 83 76 79 83 74 76 78 76 76 70 69 63 61 53 52 37 46 42 33 23 19 17 13 317 0 353 352 336 310 317
63 51 60 44 46 51 58 64 62 67 67 56 59 66 70 66 62 71 61 60 69 70 66 60 65 60 60 57 300 65 267 271 55 44 7 284 284 283 28 30 287 50 15 15 351
33 39 21 49 46 31 52 48 38 37 62 65 60 59 58 60 51 45 55 51 44 53 66 66 55 58 59 55 68 46 57 52 47 41 29 51 25 27 45 42 40 45 42 42 312
2 6 12 27 28 40 32 27 55 316 45 28 12 54 60 64 44 55 53 305 57 50 46 41 30 27 42 32 45 44 42 14 26 35 13 6 4 15 24 40 19 40 27 348 36
1 354 1 4 358 357 358 60 32 12 19 67 38 22 333 35 29 44 284 249 14 35 44 39 318 2 358 49 12 39 42 29 34 307 17 40 41 36 9 282 341 351 357 6 13
346 345 346 4 333 339 3 330 335 333 24 337 345 358 17 288 74 66 277 275 275 15 1 2 270 283 283 285 303 348 17 36 28 31 30 359 31 23 24 16 5 287 332 289 288
318 323 334 338 336 349 317 353 303 304 336 314 317 354 6 301 329 314 315 317 316 313 286 15 15 293 310 321 327 21 356 332 357 284 358 356 331 8 2 305 286 300 339 307 351